Terug naar catalogus

OPS 4682 DEB

ActiefPO
NORAD 19185·DEBRIS·🇺🇸 United States

Gelanceerd Apr 3, 1965 vanaf Vandenberg Space Force Base

Loading…

Volgende Passages (komende 24 uur)

TLE

VersSource: Space-Track

Epoch: Sep 14, 2026, 01:48 UTC

1 19185U 65027AR  26257.07543131 -.00000026  00000-0 -11574-3 0  9991
2 19185  90.2539   6.4201 0035203 195.8625 340.6181 12.97804534961637

Volg OPS 4682 DEB in realtime met AllMySat

Download on the App Store